Weather History for KAEL - February, 2014

Change the Weather History Date:

Saturday, February 22, 2014

  Actual Average (KMCW) Record (KMCW)
Temperature  
Mean Temperature 9 °F 23 °F  
Max Temperature 15 °F 32 °F 58 °F (1930)
Min Temperature 3 °F 15 °F -17 °F (1929)
Degree Days  
Heating Degree Days 56 42  
Month to date heating degree days 998  
Since 1 July heating degree days 5609  
Cooling Degree Days 0 0  
Month to date cooling degree days 0  
Year to date cooling degree days 0  
Moisture  
Dew Point 5 °F    
Average Humidity 78    
Maximum Humidity 92    
Minimum Humidity 68    
Precipitation  
Precipitation 0.00 in 0.04 in 0.90 in (1922)
Month to date precipitation 0.74  
Year to date precipitation 1.56  
Snow  
Snow 0.00 in 0.30 in 8.00 in (1971)
Month to date snowfall 6.3  
Since 1 July snowfall 31.1  
Snow Depth -    
Sea Level Pressure  
Sea Level Pressure 29.98 in    
Wind  
Wind Speed 7 mph (WNW)    
Max Wind Speed 13 mph    
Max Gust Speed 20 mph    
Visibility 10 miles    
Events      
T = Trace of Precipitation, MM = Missing Value Source: NWS Daily Summary

Daily Weather History Graph

Daily Weather History Graph

Search for Another Location

Airport or City:

Trip Planner

Search our weather history database for the weather conditions in past years. The results will help you decide how hot, cold, wet, or windy it might be!

Date:

Astronomy

Feb. 22, 2014 Rise Set
Actual Time 7:01 AM CST 5:53 PM CST
Civil Twilight 6:32 AM CST 6:22 PM CST
Nautical Twilight 5:59 AM CST 6:55 PM CST
Astronomical Twilight 5:25 AM CST 7:28 PM CST
Moon 1:01 AM CST (2/22) 10:59 AM CST (2/22)
Length of Visible Light 11h 49m
Length of Day
10h 51m
Waning Gibbous, 50% of the Moon is Illuminated
Feb 22
Waning Gibbous
Mar 1
New
Mar 8
First Quarter
Mar 16
Full
Mar 23
Last Quarter

Hourly Weather History & Observations

Time (CST) Temp. Windchill Dew Point Humidity Pressure Visibility Wind Dir Wind Speed Gust Speed Precip Events Conditions
12:12 AM 12.2 °F 2.9 °F 6.8 °F 79% 29.80 in 10.0 mi West 5.8 mph - N/A   Clear
12:32 AM 10.4 °F -0.4 °F 6.8 °F 85% 29.82 in 10.0 mi West 6.9 mph - N/A   Clear
12:52 AM 12.2 °F 0.7 °F 6.8 °F 79% 29.83 in 10.0 mi West 8.1 mph - N/A   Clear
1:12 AM 12.2 °F 0.7 °F 6.8 °F 79% 29.83 in 10.0 mi WNW 8.1 mph - N/A   Clear
1:32 AM 12.2 °F 1.7 °F 6.8 °F 79% 29.83 in 10.0 mi West 6.9 mph - N/A   Clear
1:52 AM 12.2 °F 2.9 °F 6.8 °F 79% 29.83 in 10.0 mi WNW 5.8 mph - N/A   Clear
2:12 AM 10.4 °F -0.4 °F 6.8 °F 85% 29.84 in 10.0 mi WNW 6.9 mph - N/A   Clear
2:32 AM 10.4 °F -0.4 °F 6.8 °F 85% 29.84 in 10.0 mi WNW 6.9 mph - N/A   Clear
2:52 AM 8.6 °F 0.1 °F 5.0 °F 85% 29.85 in 10.0 mi West 4.6 mph - N/A   Clear
3:12 AM 8.6 °F -2.6 °F 3.2 °F 79% 29.85 in 10.0 mi West 6.9 mph - N/A   Clear
3:32 AM 8.6 °F -3.7 °F 3.2 °F 79% 29.85 in 10.0 mi WNW 8.1 mph - N/A   Clear
3:52 AM 8.6 °F 0.1 °F 3.2 °F 79% 29.85 in 10.0 mi WNW 4.6 mph - N/A   Clear
4:12 AM 8.6 °F -2.6 °F 3.2 °F 79% 29.89 in 10.0 mi West 6.9 mph - N/A   Clear
4:32 AM 8.6 °F -1.3 °F 3.2 °F 79% 29.89 in 10.0 mi West 5.8 mph - N/A   Clear
4:52 AM 8.6 °F -2.6 °F 3.2 °F 79% 29.90 in 10.0 mi West 6.9 mph - N/A   Clear
5:12 AM 8.6 °F -2.6 °F 3.2 °F 79% 29.90 in 10.0 mi West 6.9 mph - N/A   Clear
5:32 AM 6.8 °F -3.5 °F 3.2 °F 85% 29.90 in 10.0 mi WNW 5.8 mph - N/A   Clear
5:52 AM 6.8 °F -3.5 °F 1.4 °F 79% 29.90 in 10.0 mi WNW 5.8 mph - N/A   Clear
6:12 AM 6.8 °F -4.8 °F 3.2 °F 85% 29.90 in 10.0 mi WNW 6.9 mph - N/A   Clear
6:32 AM 6.8 °F -5.9 °F 1.4 °F 79% 29.91 in 10.0 mi WNW 8.1 mph - N/A   Clear
6:51 AM 6.8 °F -4.8 °F 1.4 °F 79% 29.94 in 10.0 mi West 6.9 mph - N/A   Clear
7:12 AM 6.8 °F -4.8 °F 1.4 °F 79% 29.95 in 10.0 mi West 6.9 mph - N/A   Clear
7:32 AM 6.8 °F -5.9 °F 1.4 °F 79% 29.95 in 10.0 mi WNW 8.1 mph - N/A   Scattered Clouds
7:52 AM 6.8 °F -5.9 °F 1.4 °F 79% 29.94 in 10.0 mi WNW 8.1 mph - N/A   Scattered Clouds
8:12 AM 8.6 °F -2.6 °F 1.4 °F 73% 29.95 in 10.0 mi WNW 6.9 mph - N/A   Clear
8:32 AM 8.6 °F -2.6 °F 3.2 °F 79% 29.96 in 10.0 mi WNW 6.9 mph - N/A   Clear
8:52 AM 8.6 °F 0.1 °F 3.2 °F 79% 29.97 in 10.0 mi WNW 4.6 mph - N/A   Clear
9:12 AM 10.4 °F -3.3 °F 3.2 °F 73% 29.97 in 10.0 mi WNW 10.4 mph 16.1 mph N/A   Clear
9:32 AM 10.4 °F -1.5 °F 3.2 °F 73% 29.98 in 10.0 mi WNW 8.1 mph 18.4 mph N/A   Clear
9:52 AM 10.4 °F -2.4 °F 3.2 °F 73% 29.99 in 10.0 mi WNW 9.2 mph 17.3 mph N/A   Clear
10:12 AM 10.4 °F -2.4 °F 3.2 °F 73% 29.99 in 10.0 mi WNW 9.2 mph - N/A   Clear
10:32 AM 10.4 °F -2.4 °F 3.2 °F 73% 29.99 in 10.0 mi WNW 9.2 mph - N/A   Clear
10:52 AM 10.4 °F -0.4 °F 5.0 °F 79% 30.00 in 10.0 mi WNW 6.9 mph - N/A   Clear
11:12 AM 10.4 °F -3.3 °F 5.0 °F 79% 30.00 in 10.0 mi WNW 10.4 mph 16.1 mph N/A   Clear
11:32 AM 12.2 °F 1.7 °F 5.0 °F 73% 29.99 in 10.0 mi WNW 6.9 mph - N/A   Clear
11:51 AM 12.2 °F -0.2 °F 6.8 °F 79% 29.99 in 10.0 mi West 9.2 mph - N/A   Clear
12:12 PM 12.2 °F 0.7 °F 6.8 °F 79% 29.99 in 10.0 mi West 8.1 mph - N/A   Clear
12:31 PM 12.2 °F 0.7 °F 6.8 °F 79% 29.99 in 10.0 mi WNW 8.1 mph - N/A   Clear
12:52 PM 12.2 °F -0.2 °F 6.8 °F 79% 29.98 in 10.0 mi WNW 9.2 mph - N/A   Clear
1:12 PM 14.0 °F 5.1 °F 6.8 °F 73% 29.99 in 10.0 mi West 5.8 mph - N/A   Clear
1:32 PM 14.0 °F 2.9 °F 6.8 °F 73% 29.99 in 10.0 mi West 8.1 mph - N/A   Clear
1:52 PM 15.8 °F 4.2 °F 6.8 °F 68% 29.99 in 10.0 mi WNW 9.2 mph - N/A   Clear
2:11 PM 15.8 °F 3.4 °F 8.6 °F 73% 30.00 in 10.0 mi West 10.4 mph - N/A   Clear
2:32 PM 15.8 °F 5.1 °F 8.6 °F 73% 30.00 in 10.0 mi West 8.1 mph - N/A   Clear
2:51 PM 15.8 °F 5.1 °F 8.6 °F 73% 30.00 in 10.0 mi WNW 8.1 mph - N/A   Clear
3:12 PM 15.8 °F 6.1 °F 8.6 °F 73% 30.00 in 10.0 mi WNW 6.9 mph - N/A   Clear
3:32 PM 15.8 °F 6.1 °F 8.6 °F 73% 30.00 in 10.0 mi WNW 6.9 mph - N/A   Clear
3:52 PM 15.8 °F 2.1 °F 6.8 °F 68% 30.01 in 10.0 mi WNW 12.7 mph 19.6 mph N/A   Clear
4:12 PM 15.8 °F 5.1 °F 6.8 °F 68% 30.01 in 10.0 mi WNW 8.1 mph - N/A   Clear
4:31 PM 15.8 °F 5.1 °F 6.8 °F 68% 30.02 in 10.0 mi WNW 8.1 mph - N/A   Clear
4:52 PM 15.8 °F 4.2 °F 6.8 °F 68% 30.02 in 10.0 mi West 9.2 mph - N/A   Clear
5:12 PM 14.0 °F 5.1 °F 6.8 °F 73% 30.03 in 10.0 mi WNW 5.8 mph - N/A   Clear
5:32 PM 12.2 °F 4.3 °F 6.8 °F 79% 30.03 in 10.0 mi West 4.6 mph - N/A   Clear
5:52 PM 12.2 °F 2.9 °F 6.8 °F 79% 30.04 in 10.0 mi West 5.8 mph - N/A   Clear
6:12 PM 12.2 °F 4.3 °F 6.8 °F 79% 30.04 in 10.0 mi WNW 4.6 mph - N/A   Clear
6:32 PM 10.4 °F 2.2 °F 6.8 °F 85% 30.05 in 10.0 mi West 4.6 mph - N/A   Clear
6:52 PM 10.4 °F 2.2 °F 5.0 °F 79% 30.06 in 10.0 mi West 4.6 mph - N/A   Clear
7:12 PM 8.6 °F 2.0 °F 5.0 °F 85% 30.07 in 10.0 mi West 3.5 mph - N/A   Clear
7:32 PM 8.6 °F -1.3 °F 5.0 °F 85% 30.07 in 10.0 mi West 5.8 mph - N/A   Clear
7:51 PM 8.6 °F 0.1 °F 3.2 °F 79% 30.07 in 10.0 mi West 4.6 mph - N/A   Clear
8:12 PM 8.6 °F 0.1 °F 5.0 °F 85% 30.07 in 10.0 mi West 4.6 mph - N/A   Clear
8:32 PM 8.6 °F 2.0 °F 5.0 °F 85% 30.08 in 10.0 mi West 3.5 mph - N/A   Clear
8:52 PM 8.6 °F 0.1 °F 5.0 °F 85% 30.08 in 10.0 mi WNW 4.6 mph - N/A   Clear
9:12 PM 8.6 °F 2.0 °F 3.2 °F 79% 30.09 in 10.0 mi West 3.5 mph - N/A   Clear
9:32 PM 3.2 °F -4.2 °F 1.4 °F 92% 30.10 in 10.0 mi West 3.5 mph - N/A   Clear
9:52 PM 6.8 °F -3.5 °F 3.2 °F 85% 30.11 in 10.0 mi West 5.8 mph - N/A   Clear
10:12 PM 6.8 °F -2.0 °F 3.2 °F 85% 30.12 in 10.0 mi West 4.6 mph - N/A   Clear
10:32 PM 8.6 °F 0.1 °F 3.2 °F 79% 30.11 in 10.0 mi West 4.6 mph - N/A   Clear
10:52 PM 6.8 °F -0.1 °F 3.2 °F 85% 30.12 in 10.0 mi West 3.5 mph - N/A   Clear
11:12 PM 6.8 °F -3.5 °F 3.2 °F 85% 30.12 in 10.0 mi WNW 5.8 mph - N/A   Clear
11:32 PM 8.6 °F -2.6 °F 3.2 °F 79% 30.11 in 10.0 mi WNW 6.9 mph - N/A   Clear
11:52 PM 8.6 °F -2.6 °F 3.2 °F 79% 30.13 in 10.0 mi WNW 6.9 mph - N/A   Clear